Location: Unspecified
(0.0000°N, 0.0000°E)
Time: 19:22:48
(UTC+00:00)

Vanguard 2 - Pass Details

Date: 13 December 2017
Orbit: 553 x 2939 km, 32.9° (Epoch: 17 June)

Event Time Altitude Azimuth Distance (km) Brightness Sun altitude
Exits shadow 03:44:27 - 234° (SW) 4,510 11.2 -29.5°
Reaches altitude 10° 03:46:18 10° 226° (SW) 4,352 11.2 -29.1°
Maximum altitude 03:53:32 17° 190° (S) 4,379 11.5 -27.5°
Drops below altitude 10° 04:02:26 10° 155° (SSE) 5,463 12.5 -25.5°
Sets 04:09:56 0° 137° (SE) 6,730 13.5 -23.8°
